• MPC Preparation (Info)

  • MPEC 2019-T225 : 2019 TS7

    The following Minor Planet Electronic Circular may be linked-to from your own Web pages, but must not otherwise be redistributed electronically.

    A form allowing access to any MPEC is at the bottom of this page.


    Read MPEC 2019-T224 Read MPEC 2019-T226


    M.P.E.C. 2019-T225                             Issued 2019 October 15, 19:51 UT
    
         The Minor Planet Electronic Circulars contain information on unusual
             minor planets and routine data on comets.  They are published
        on behalf of Division F of the International Astronomical Union by the
              Minor Planet Center, Smithsonian Astrophysical Observatory,
                              Cambridge, MA 02138, U.S.A.
    
                 Prepared using the Tamkin Foundation Computer Network
    
                                  MPC@CFA.HARVARD.EDU
                URL https://www.minorplanetcenter.net/    ISSN 1523-6714
    
                                    2019 TS7                                 
    
    
    Observations:
         K19T07S* C2019 10 08.23661 01 10 54.75 -13 34 10.7          19.4 GVET225G96
         K19T07S  C2019 10 08.24141 01 10 58.52 -13 37 29.1          19.0 GVET225G96
         K19T07S  C2019 10 08.24621 01 11 02.41 -13 40 49.8                VET225G96
         K19T07S  C2019 10 08.25102 01 11 06.24 -13 44 08.3                VET225G96
         K19T07S  C2019 10 08.32652201 12 05.44 -14 36 04.0          19.2 GVET225H01
         K19T07S  C2019 10 08.33372101 12 11.17 -14 40 59.7          19.5 GVET225H01
         K19T07S  C2019 10 08.34130201 12 17.22 -14 46 10.9          19.5 GVET225H01
         K19T07S  C2019 10 08.35152501 12 25.38 -14 53 09.8          19.3 GVET225H01
         K19T07S  C2019 10 08.35404 01 12 28.03 -14 54 50.3          19.3 GVET225I52
         K19T07S  C2019 10 08.35460 01 12 28.47 -14 55 13.0          19.2 GVET225I52
         K19T07S  C2019 10 08.35516 01 12 28.95 -14 55 35.4          18.9 GVET225I52
         K19T07S  C2019 10 08.35572 01 12 29.38 -14 55 58.8          19.2 GVET225I52
         K19T07S KC2019 10 08.92124 01 20 55.33 -21 15 41.8          19.6 GVET225104
         K19T07S KC2019 10 08.92478 01 20 58.27 -21 18 01.4          19.6 GVET225104
         K19T07S KC2019 10 08.92832 01 21 01.20 -21 20 20.2          19.3 GVET225104
         K19T07S KC2019 10 08.95265701 21 21.05 -21 36 17.8          19.6 GVET225L01
         K19T07S KC2019 10 08.95475401 21 22.81 -21 37 40.4          19.7 GVET225L01
         K19T07S KC2019 10 08.95769001 21 25.27 -21 39 35.6          19.6 GVET225L01
         K19T07S  C2019 10 09.28862 01 26 26.67 -25 11 02.0          19.2 GVET225I52
         K19T07S  C2019 10 09.28974 01 26 27.63 -25 11 44.0          19.4 GVET225I52
         K19T07S  C2019 10 09.29085 01 26 28.57 -25 12 26.0          19.4 GVET225I52
    
    Observer details:
    104 San Marcello Pistoiese.  Observers P. Bacci, M. Maestripieri.  Measurers P. 
       Bacci, L. Tesi, G. Fagioli.  0.60-m reflector + CCD.
    G96 Mt. Lemmon Survey.  Observer G. J. Leonard.  Measurers E. J. Christensen, 
       G. A. Farneth, D. C. Fuls, A. R. Gibbs, A. D. Grauer, H. Groeller, R. A. 
       Kowalski, S. M. Larson, G. J. Leonard, T. A. Pruyne, D. Rankin, R. L. Seaman,
        F. C. Shelly, K. W. Wierzchos.  1.5-m reflector + 10K CCD.
    H01 Magdalena Ridge Observatory, Socorro.  Observers W. H. Ryan, E. V. Ryan.  
        Measurer W. H. Ryan.  2.4-m f/8.9 Ritchey-Chretien + CCD.
    I52 Steward Observatory, Mt. Lemmon Station.  Observer T. A. Pruyne.  Measurers 
       E. J. Christensen, G. A. Farneth, D. C. Fuls, A. R. Gibbs, A. D. Grauer, H. 
       Groeller, R. A. Kowalski, S. M. Larson, G. J. Leonard, T. A. Pruyne, D. 
       Rankin, R. L. Seaman, F. C. Shelly, K. W. Wierzchos.  1.0-m reflector + CCD.
    L01 Visnjan Observatory, Tican.  Observers K. Korlevic, F. Valentine.  Measurer 
       K. Korlevic.  1.0-m f/2.9 reflector + CCD.
    
    Orbital elements:
    2019 TS7                                                 Earth MOID = 0.0434 AU
    Epoch 2019 Apr. 27.0 TT = JDT 2458600.5                 Bell
    M 234.48439              (2000.0)            P               Q
    n   0.62794351     Peri.  220.35340     +0.61731586     -0.77956191
    a   1.3505863      Node   192.78650     +0.78670742     +0.61230281
    e   0.2648874      Incl.   28.57263     +0.00354528     -0.13178961
    P   1.57           H   25.2           G   0.15           U   8
    Residuals in seconds of arc
    191008 G96  0.1+  0.9+    191008 H01  0.1-  0.1-    191008 104  0.4-  0.3+
    191008 G96  0.7-  1.1+    191008 I52  0.1-  0.4-    191008 L01  0.1+  0.5+
    191008 G96  0.3+  0.9-    191008 I52  0.2-  0.1-    191008 L01  0.2+  0.1+
    191008 G96  0.3+  0.5-    191008 I52  0.3+  0.4+    191008 L01  0.2+  0.1-
    191008 H01  0.0   0.1-    191008 I52  0.0   0.0     191009 I52  0.3-  0.2-
    191008 H01  0.1-  0.2-    191008 104  0.4+  0.0     191009 I52  0.1-  0.0
    191008 H01  0.0   0.3-    191008 104  0.1+  0.2-    191009 I52  0.0   0.1-
    
    Ephemeris:
    2019 TS7                 a,e,i = 1.35, 0.26, 29                  q = 0.9928
    Date    TT    R. A. (2000) Decl.     Delta      r    Elong.  Phase     V
    2019 09 15    22 39 14.5 +61 19 51   0.2148  1.1126   114.6    55.3    24.1
    ...
    2019 09 30    23 42 02.2 +46 27 57   0.08457 1.0633   135.1    41.7    21.6
    ...
    2019 10 08    01 07 26.2 -10 47 56   0.04357 1.0412   163.2    16.1    19.4
    ...
    2019 10 14    02 44 24.1 -57 17 34   0.07140 1.0269   112.3    64.0    21.8
    2019 10 15    03 01 35.6 -60 37 22   0.07881 1.0247   108.2    67.6    22.1
    2019 10 16    03 18 33.4 -63 14 02   0.08652 1.0226   104.8    70.5    22.4
    ...
    2019 10 22    04 47 17.8 -70 42 38   0.1357  1.0113    92.9    79.4    23.7
    ...
    2019 10 30    06 01 56.5 -72 57 12   0.2025  1.0002    86.1    82.2    24.6
    ...
    2019 11 14    07 07 14.6 -73 12 45   0.3190  0.9926    81.3    80.2    25.5
    
    A. U. Tomatic                (C) Copyright 2019 MPC           M.P.E.C. 2019-T225
    


    Read MPEC 2019-T224 Read MPEC 2019-T226


    MPEC number:

    Enter an MPEC number in one of the following forms:

    • 1997-B01 (the full form)
    • J97B01 (the packed version of the full form)
    • B01 (the abbreviated form)